Location: Fontana
(46.5188°N, 8.5605°E)
Time: 12:13:16
(UTC+00:00)

Daily predictions for brighter satellites

Satellite Brightness Start Highest point End
(mag) Time Altitude Azimuth Time Altitude Azimuth Time Altitude Azimuth
BREEZE-M DEB (TANK) 4.1 15:58:09 10° W 16:01:55 76° NNW 16:14:49 10° ENE
Cosmos 44 3.5 16:02:14 10° NW 16:07:32 77° NE 16:12:58 10° SE
PSLV R/B 3.9 16:04:59 10° SSE 16:09:02 69° ENE 16:13:05 10° N
CZ-4B R/B 3.5 16:04:34 10° SE 16:09:33 43° ENE 16:14:30 10° N
CZ-4B R/B 4.1 16:06:04 10° S 16:10:12 52° W 16:14:32 10° NNW
H-2A R/B 2.5 16:08:11 10° SSE 16:12:19 56° ENE 16:16:19 10° N
MOS 1-B 4.4 16:09:00 10° SSE 16:14:46 74° ENE 16:20:35 10° NNW
Cosmos 2369 Rocket 2.9 16:09:57 10° NNW 16:15:01 31° NE 16:19:59 10° ESE
Cosmos 1943 Rocket 2.4 16:11:26 10° NNW 16:16:47 46° ENE 16:22:09 10° SE
ADEOS Rocket 3.7 16:09:46 10° NNE 16:17:36 82° ESE 16:25:17 10° SSW
Cosmos 2221 4.3 16:15:13 10° SW 16:19:07 32° WNW 16:23:01 10° N
NOAA 12 4.3 16:14:03 10° SE 16:19:09 48° ENE 16:24:15 10° N
H-2A R/B 2.4 16:17:43 10° NNE 16:21:49 47° E 16:25:58 10° S
NOAA 6 4.1 16:20:41 10° SSE 16:25:50 87° ENE 16:31:01 10° NNW
Okean O Rocket 1.9 16:21:46 10° SE 16:25:55 45° ENE 16:30:08 10° N
Cosmos 1782 4.0 16:23:31 10° SE 16:26:41 23° E 16:29:53 10° NE
Okean-O 4.4 16:26:00 10° E 16:27:56 13° ENE 16:29:52 10° NNE
CRYOSAT 2 4.4 16:24:24 10° N 16:29:17 68° E 16:34:10 10° S
ISS -2.7 16:27:10 10° WNW 16:30:16 32° N 16:32:58 12° ENE
H-2A R/B 3.5 16:26:38 10° S 16:30:25 57° W 16:34:17 10° NNW
Cosmos 1633 Rocket 3.1 16:26:17 10° N 16:30:36 55° ENE 16:34:52 10° SSE
Cosmos 1933 3.4 16:28:16 10° S 16:32:13 57° E 16:36:14 10° NNE
Cosmos 2218 Rocket 4.0 16:30:59 10° N 16:37:02 57° ENE 16:43:06 10° SSE
Cosmos 2366 rocket 4.0 16:31:56 10° N 16:38:01 56° ENE 16:44:01 10° SSE
ERS-2 3.4 16:36:10 11° NE 16:38:48 21° E 16:41:41 10° SSE
Meteor 1-25 Rocket 4.2 16:33:14 10° N 16:38:52 69° ENE 16:44:33 10° SSE
Cosmos 1867 4.1 16:33:31 10° SW 16:38:53 58° NW 16:44:18 10° NNE
Envisat 3.4 16:37:04 10° S 16:42:07 67° WSW 16:47:12 10° NNW
Lacrosse 5 rocket 1.6 16:43:53 10° WSW 16:47:27 50° NNW 16:50:15 15° NE
Cosmos 773 Rocket 4.0 16:43:16 10° SSW 16:48:30 73° ESE 16:53:49 10° NNE
SL-23 DEB 4.4 16:45:24 10° SW 16:48:49 51° SE 16:52:39 16° ENE
NOSS 3-2 (A) 4.5 16:46:43 10° SSE 16:51:03 23° ESE 16:54:01 16° ENE
YAOGAN 6 3.4 16:47:40 10° S 16:51:14 55° W 16:54:47 10° NNW
Cosmos 1606 4.0 16:50:17 10° SSW 16:54:00 43° WNW 16:57:44 10° N
Cosmos 2297 4.4 16:48:58 10° NNW 16:54:34 59° WSW 17:00:09 10° S
OE (NEXTSAT) 4.3 16:52:49 10° W 16:56:17 83° S 16:58:30 21° E
AQUARIUS 4.2 16:51:51 10° SSE 16:56:19 89° SW 17:00:51 10° NNW
FengYun 1-2 T 4.1 16:50:50 10° SSE 16:56:20 71° ENE 17:01:49 10° N
Feng Yun 1-1 Rocket 4.4 16:51:00 10° SE 16:56:30 50° ENE 17:01:52 10° N
CZ-4B R/B 1.7 16:56:25 18° NE 16:58:24 39° E 17:01:24 10° S
SL-16 R/B 2.5 16:52:59 10° SW 16:58:37 68° WNW 17:04:17 10° NNE
Landsat 5 4.4 16:55:06 10° N 16:59:27 54° WNW 17:03:52 10° SSW
BREEZE-M DEB (TANK) 1.4 17:00:27 10° WSW 17:02:53 81° SSE 17:03:26 41° ENE
USA 215 4.1 16:59:20 17° ENE 17:03:24 31° SE 17:09:06 10° S
SMAP 3.5 17:00:45 10° S 17:05:22 65° WSW 17:10:01 10° NNW
Cosmos 1500 3.8 17:02:39 10° N 17:06:08 32° ENE 17:09:36 10° SE
YAOGAN 1 3.6 17:09:19 24° ENE 17:09:19 24° ENE 17:12:41 10° NNE
USA 238 DEB 4.4 17:04:26 10° S 17:10:04 31° ESE 17:13:06 22° ENE
USA 238 4.4 17:04:33 10° S 17:10:10 31° ESE 17:13:10 22° ENE
Cosmos 1656 Rocket 4.0 17:05:18 10° NNW 17:10:42 44° NE 17:16:00 10° SE
Cosmos 1151 Rocket 3.3 17:08:07 10° SSW 17:12:22 67° W 17:16:38 10° N
Cosmos 1470 Rocket 3.4 17:08:47 10° N 17:13:08 88° E 17:17:27 10° S
MOS 1 Rocket 4.5 17:13:25 23° ENE 17:15:22 28° E 17:19:55 10° SSE
Cosmos 2263 4.1 17:14:02 10° NNW 17:19:38 64° ENE 17:25:10 10° SE
Cosmos 158 Rocket 4.5 17:15:17 10° SSE 17:19:42 33° ESE 17:20:54 29° ENE
Cosmos 1515 Rocket 3.4 17:15:58 10° S 17:20:21 76° E 17:24:47 10° NNE
CZ-2C R/B 3.3 17:16:33 10° SE 17:21:08 39° ENE 17:25:37 10° N
SWAS 4.5 17:18:17 10° SSW 17:22:27 57° ESE 17:24:10 32° NE
Cosmos 923 Rocket 4.5 17:18:17 10° S 17:23:03 38° ESE 17:24:50 29° ENE
Cosmos 1238 Rocket 3.4 17:21:28 10° N 17:25:15 39° ENE 17:29:46 10° SSE
COSMO-SKYMED 1 2.6 17:23:06 19° NNE 17:26:04 58° E 17:30:20 10° S
TELKOM 3 4.2 17:24:18 10° WNW 17:26:18 34° NNW 17:26:18 34° NNW
Cosmos 1689 Rocket 4.3 17:29:01 15° SSE 17:29:01 15° SSE 17:29:44 10° SSE
USA 281 3.4 17:21:50 10° SE 17:28:05 49° NE 17:34:22 10° NNW
X-37B 0.8 17:25:59 10° WSW 17:29:06 55° S 17:29:28 51° SE
YAOGAN 3 4.5 17:24:56 10° SSE 17:29:18 86° ENE 17:33:41 10° NNW
SAR-Lupe-4 3.6 17:29:14 49° ENE 17:29:39 52° ESE 17:33:09 10° S
Nadezhda 3 Rocket 4.1 17:23:34 10° SSE 17:29:44 54° E 17:35:54 10° NNE
Helios 1A Rocket 3.4 17:33:25 38° NE 17:33:25 38° NE 17:36:26 10° N
Meteor 2-6 Rocket 4.2 17:27:20 10° S 17:32:46 58° E 17:37:14 15° NNE
Cosmos 2228 Rocket 3.2 17:28:34 10° SSE 17:32:57 50° E 17:34:29 35° NE
Meteor 1-4 Rocket 3.4 17:30:54 10° SSW 17:34:22 48° WNW 17:37:26 13° N
H-2A R/B 2.5 17:35:17 36° E 17:36:00 38° ENE 17:40:42 10° N
Cosmos 1812 2.8 17:33:03 10° S 17:36:35 52° ESE 17:36:35 52° ESE
USA 267 3.5 17:34:11 30° ENE 17:37:09 50° NNE 17:43:25 10° NW
Cosmos 1821 Rocket 3.9 17:31:42 10° N 17:37:58 69° E 17:44:15 10° SSE
Cosmos 1939 Rocket 2.9 17:34:42 10° S 17:38:35 75° W 17:42:32 10° NNW
CZ-4 R/B 4.3 17:36:14 10° SSE 17:40:22 78° ENE 17:44:31 10° N
CZ-4 R/B 1.6 17:41:26 48° NE 17:41:26 48° NE 17:44:47 10° N
Meteor 1-11 Rocket 4.0 17:35:25 10° N 17:41:01 47° ENE 17:46:40 10° SSE
NOSS 3-3 (A) 4.5 17:34:22 10° NW 17:41:45 66° NE 17:47:59 19° SE
NOSS 3-3 (C) 4.5 17:34:27 10° NW 17:41:51 66° NE 17:47:58 20° SE
PSLV R/B 3.9 17:42:20 57° E 17:42:27 57° ESE 17:46:25 10° S
BREEZE-M DEB (TANK) 3.6 17:40:19 10° SSW 17:42:53 22° SSE 17:42:53 22° SSE
Cosmos 1933 Rocket 3.9 17:38:44 10° NNW 17:43:11 67° W 17:47:35 10° S
Cosmos 44 Rocket 3.4 17:38:06 10° NNW 17:43:16 64° NE 17:45:09 38° ESE
CSL-04 Rocket 4.1 17:44:05 37° NE 17:44:05 37° NE 17:48:23 10° N
IRS-1C Rocket 4.1 17:39:36 10° SSE 17:44:53 87° WSW 17:50:13 10° NNW
Cosmos 546 4.5 17:42:17 10° WSW 17:46:05 75° SSE 17:46:15 74° SE
SAR-Lupe-1 3.9 17:46:35 82° E 17:46:38 82° ESE 17:50:12 10° SSW
Lacrosse 4 Rocket 3.4 17:46:01 10° SSE 17:46:59 15° SSE 17:46:59 15° SSE
Cosmos 1680 Rocket 3.6 17:44:48 10° S 17:49:52 50° ESE 17:50:18 49° E
SL-24 R/B 3.6 17:49:33 59° N 17:50:12 87° W 17:53:51 10° SSW
Cosmos 1603 3.6 17:48:31 10° SSW 17:54:09 87° WNW 17:56:56 31° NNE
CZ-2D R/B 3.5 17:51:39 10° S 17:55:27 68° W 17:59:18 10° NNW
Cosmos 1943 3.1 17:51:50 10° SSW 17:57:31 89° ESE 17:59:58 36° NNE
Cosmos 2369 Rocket 3.1 17:53:48 10° NW 17:59:16 49° WSW 18:04:40 10° S
Cosmos 1943 Rocket 4.1 17:55:33 10° NW 18:00:19 30° WSW 18:05:05 10° SSW
Meteor 1-5 Rocket 4.4 17:55:32 10° NNW 18:01:27 78° W 18:07:10 10° S
Okean O Rocket 4.3 17:59:19 10° SW 18:02:30 20° W 18:05:43 10° NW
Okean-O 2.6 17:59:20 10° SSE 18:03:45 85° WSW 18:08:14 10° NNW
Cosmos 1461 4.2 17:59:58 10° S 18:02:43 31° SSE 18:02:43 31° SSE
Cosmos 1371 Rocket 4.2 17:59:25 10° NNW 18:03:40 50° NNE 18:03:40 50° NNE
ARGOS 4.1 18:08:32 33° NNE 18:08:32 33° NNE 18:11:41 10° N
ISS -1.8 18:04:13 10° WNW 18:05:55 26° NW 18:05:55 26° NW
CENTAUR R/B 2.6 18:02:03 10° SSW 18:07:39 50° ESE 18:07:44 50° ESE
Cosmos 2112 Rocket 4.1 18:05:12 10° S 18:09:54 61° SE 18:09:54 61° SE
Cosmos 2056 Rocket 4.0 18:05:37 10° NNW 18:09:29 44° NNE 18:09:29 44° NNE
ERS-2 4.0 18:10:45 21° NNW 18:12:22 29° WNW 18:15:34 10° SW
NOSS 3-2 (C) 3.5 18:10:19 10° SSW 18:15:09 52° SE 18:15:09 52° SE
Cosmos 1869 Rocket 3.8 18:13:27 10° NNW 18:22:44 - S 18:17:49 69° W
BREEZE-M DEB (TANK) 3.5 18:13:31 10° WSW 18:19:59 59° SSW 18:19:59 59° SSW
Meteor 1-27 Rocket 3.9 18:15:58 10° S 18:20:11 53° SSE 18:20:11 53° SSE
Meteor 1-10 Rocket 4.5 18:20:23 10° SSW 18:25:58 67° WNW 18:28:49 29° N
Lacrosse 5 rocket 3.6 18:24:41 10° WNW 18:25:53 15° NW 18:25:53 15° NW
Cosmos 371 Rocket 4.3 18:24:58 10° NNW 18:28:01 38° NNW 18:28:01 38° NNW
CZ-4B R/B 4.4 18:29:34 11° NW 18:30:19 12° WNW 18:31:37 10° W
NOSS 3-2 (A) 3.5 18:35:26 10° SW 18:41:07 69° NW 18:41:27 68° NNW
YAOGAN 1 4.3 18:46:28 29° WNW 18:46:28 29° WNW 18:49:08 10° NNW
USA 215 3.1 18:46:42 84° N 18:46:53 85° NW 18:53:26 10° WSW
USA 238 DEB 3.9 18:54:00 10° SW 19:00:33 64° NW 19:00:35 64° NW
USA 238 3.9 18:54:05 10° SW 19:00:39 64° NW 19:00:39 64° NW
USA 281 4.4 19:06:39 10° S 19:12:41 38° WSW 19:18:46 10° NW
H-2A R/B 3.7 19:15:55 31° W 19:15:55 31° W 19:20:03 10° NNW
CZ-4 R/B 4.5 19:17:28 12° WNW 19:17:28 12° WNW 19:18:22 10° WNW
USA 267 3.8 19:21:32 54° WNW 19:21:32 54° WNW 19:26:34 10° NW
CENTAUR R/B 4.4 19:52:36 10° WSW 19:54:58 24° W 19:54:58 24° W
